Retour au catalogue

FALCON 9 R/B

ActifHEO
NORAD 58996·ROCKET BODY·🇺🇸 United States

Lancé Feb 20, 2024 depuis Cape Canaveral Space Force Station

Loading…

Prochains Passages (prochaines 24 heures)

TLE

FraisSource: Space-Track

Époque: Sep 14, 2026, 17:31 UTC

1 58996U 24035B   26257.73026213  .00000024  00000-0  40726-3 0  9995
2 58996  20.8747  73.6373 7993981 198.5281  92.0928  1.40603779 13074

Suivez FALCON 9 R/B en temps réel avec AllMySat

Download on the App Store